Ketchikan, AK

5:14 PM AKST on February 20, 2019 (GMT -0900)
Ketchikan International

Weather History for PAKT - January, 2019

Change the Weather History Date:

Saturday, January 19, 2019

  Actual Average Record
Temperature  
Mean Temperature 40 °F -  
Max Temperature 42 °F 40 °F 56 °F (1981)
Min Temperature 37 °F 30 °F 0 °F (2012)
Degree Days  
Heating Degree Days 26    
Moisture  
Dew Point 37 °F    
Average Humidity 89    
Maximum Humidity 100    
Minimum Humidity 81    
Precipitation  
Precipitation 0.13 in - - ()
Sea Level Pressure  
Sea Level Pressure 29.42 in    
Wind  
Wind Speed 6 mph (SW)    
Max Wind Speed 14 mph    
Max Gust Speed -    
Visibility 9 miles    
Events Rain    
Averages and records for this station are not official NWS values.
T = Trace of Precipitation, MM = Missing Value Source: NWS Daily Summary

Daily Weather History Graph

Daily Weather History Graph

Search for Another Location

Airport or City:

Astronomy

Jan. 19, 2019 Rise Set
Actual Time 7:59 AM AKST 3:56 PM AKST
Civil Twilight 7:16 AM AKST 4:38 PM AKST
Nautical Twilight 6:30 AM AKST 5:24 PM AKST
Astronomical Twilight 5:47 AM AKST 6:08 PM AKST
Moon 2:25 PM AKST (1/19) 6:41 AM AKST (1/19)
Length of Visible Light 9h 22m
Length of Day
7h 56m
Waxing Gibbous, 97% of the Moon is Illuminated
Jan 19
Waxing Gibbous
Jan 20
Full
Jan 27
Last Quarter
Feb 4
New
Feb 12
First Quarter

Hourly Weather History & Observations

Time (AKST) Temp. Windchill Dew Point Humidity Pressure Visibility Wind Dir Wind Speed Gust Speed Precip Events Conditions
12:53 AM 37.0 °F 34.5 °F 34.0 °F 89% 29.24 in 10.0 mi SSE 3.5 mph - N/A   Clear
1:53 AM 39.0 °F - 34.0 °F 82% 29.23 in 10.0 mi Calm Calm - N/A   Overcast
2:53 AM 39.9 °F - 35.1 °F 83% 29.22 in 10.0 mi Calm Calm - 0.00 in Rain Light Rain
3:53 AM 41.0 °F 38.0 °F 37.0 °F 86% 29.23 in 10.0 mi South 4.6 mph - 0.02 in Rain Light Rain
4:53 AM 39.9 °F 35.8 °F 37.9 °F 93% 29.22 in 10.0 mi WNW 5.8 mph - 0.04 in Rain Light Rain
5:53 AM 39.9 °F 34.5 °F 36.0 °F 86% 29.20 in 10.0 mi WNW 8.1 mph - 0.00 in   Clear
6:00 AM 39.9 °F 36.7 °F 36.0 °F 86% 29.20 in 10.0 mi WNW 4.6 mph - N/A   Clear
6:53 AM 41.0 °F 35.2 °F 35.6 °F 81% 29.19 in 10.0 mi NW 9.2 mph - N/A   Mostly Cloudy
7:53 AM 41.0 °F 34.7 °F 37.4 °F 87% 29.21 in 10.0 mi WNW 10.4 mph - N/A   Overcast
8:53 AM 41.0 °F 34.7 °F 37.4 °F 87% 29.23 in 10.0 mi WNW 10.4 mph - N/A   Overcast
9:53 AM 42.1 °F 35.2 °F 37.0 °F 82% 29.26 in 10.0 mi NW 12.7 mph - N/A   Overcast
10:53 AM 42.8 °F 35.8 °F 37.4 °F 81% 29.28 in 10.0 mi NNW 13.8 mph - N/A   Overcast
11:53 AM 42.8 °F 37.5 °F 37.4 °F 81% 29.31 in 10.0 mi NW 9.2 mph - N/A   Overcast
12:53 PM 41.0 °F 34.3 °F 37.4 °F 87% 29.34 in 10.0 mi NW 11.5 mph - N/A Rain Light Rain
1:53 PM 41.0 °F 35.8 °F 37.4 °F 87% 29.39 in 10.0 mi NNW 8.1 mph - N/A   Overcast
2:53 PM 41.0 °F 39.0 °F 37.4 °F 87% 29.44 in 10.0 mi NW 3.5 mph - N/A   Overcast
3:53 PM 39.2 °F - 35.6 °F 87% 29.49 in 10.0 mi Calm Calm - N/A Rain Light Rain
4:53 PM 39.2 °F - 37.4 °F 93% 29.53 in 10.0 mi Calm Calm - N/A   Overcast
5:53 PM 39.9 °F 36.7 °F 37.9 °F 93% 29.56 in 10.0 mi SSE 4.6 mph - 0.00 in Rain Light Rain
6:20 PM 39.9 °F 35.8 °F 37.9 °F 93% 29.57 in 10.0 mi SSE 5.8 mph - 0.01 in   Overcast
6:53 PM 39.2 °F 33.6 °F 39.2 °F 100% 29.60 in 7.0 mi SE 8.1 mph - N/A   Overcast
7:51 PM 41.0 °F 35.2 °F 39.2 °F 93% 29.62 in 5.0 mi SE 9.2 mph - N/A Rain Light Rain
7:53 PM 41.0 °F 34.3 °F 39.2 °F 93% 29.62 in 5.0 mi SE 11.5 mph - N/A Rain Light Rain
8:53 PM 41.0 °F 34.7 °F 39.2 °F 93% 29.66 in 7.0 mi SE 10.4 mph - N/A Rain Light Rain
9:53 PM 39.9 °F 35.1 °F 39.0 °F 97% 29.68 in 10.0 mi SSE 6.9 mph - 0.02 in Rain Light Rain
10:06 PM 41.0 °F 35.2 °F 39.0 °F 93% 29.68 in 10.0 mi SSE 9.2 mph - 0.01 in Rain Light Rain
10:53 PM 39.9 °F 35.1 °F 39.0 °F 97% 29.71 in 5.0 mi SSE 6.9 mph - 0.03 in Rain Light Rain
11:53 PM 41.0 °F 39.0 °F 39.9 °F 96% 29.74 in 10.0 mi South 3.5 mph - 0.02 in Rain Light Rain